Regional Weather Roundup
Issued by NWS

Home | Current Version | Previous Version | Text Only | Print | Product List | Glossary On
Versions: 1 2 3 4 5 6 7 8 9 10 11 12 13 14 15 16 17 18 19 20 21 22 23 24 25 26 27 28 29 30 31 32 33 34 35 36 37 38 39 40 41 42 43 44 45 46 47 48 49 50
000
ASUS46 KPQR 261910
RWROR

OREGON REGIONAL WEATHER ROUNDUP
NATIONAL WEATHER SERVICE PORTLAND OR
1200 PM PDT SAT JUL 26 2014

NOTE: "FAIR" INDICATES FEW OR NO CLOUDS BELOW 12,000 FEET WITH
NO SIGNIFICANT WEATHER AND/OR OBSTRUCTIONS TO VISIBILITY.

ORZ001>013-262000-
NORTHWEST OREGON


CITY           SKY/WX    TMP DP  RH WIND       PRES   REMARKS
ASTORIA        SUNNY     68  55  63 NW12      30.17S
NEWPORT        SUNNY     63  55  77 N17G23    30.18F
PORTLAND       SUNNY     71  55  56 W8        30.14S
VANCOUVER WA   SUNNY     72  55  55 NW8       30.14S
SCAPPOOSE      SUNNY     75  55  49 N10       30.13
HILLSBORO      SUNNY     73  55  53 CALM      30.14S
AURORA         SUNNY     73  54  51 NW6       30.14F
MCMINNVILLE    SUNNY     76  55  48 NW6       30.14S
SALEM          SUNNY     75  54  47 N6        30.12F
CORVALLIS      SUNNY     75  55  50 N6        30.14S
EUGENE         SUNNY     78  55  44 N14       30.12F
$$

ORZ021-028-262000-
SOUTHWEST OREGON


CITY           SKY/WX    TMP DP  RH WIND       PRES   REMARKS
NORTH BEND     SUNNY     66  55  68 N22G28    30.12F
BROOKINGS      CLEAR     66  56  70 SW5       30.02S
ROSEBURG       SUNNY     77  53  43 N12       30.09F
SEXTON SUMMIT  SUNNY     70  51  51 VRB5      30.17R
MEDFORD        SUNNY     81  48  31 NW7       30.05F
$$

ORZ009-041-262000-
COLUMBIA GORGE


CITY           SKY/WX    TMP DP  RH WIND       PRES   REMARKS
TROUTDALE      SUNNY     73  57  57 MISG      30.12F
THE DALLES     SUNNY     82  50  32 N10       30.07F
$$

ORZ029>031-042>050-061>064-262000-
EASTERN OREGON


CITY           SKY/WX    TMP DP  RH WIND       PRES   REMARKS
REDMOND        SUNNY     78  40  25 VRB3      30.15F
BEND           CLEAR     75  41  29 N5        30.17F
KLAMATH FALLS  SUNNY     80  43  26 CALM      30.16S
LAKEVIEW       SUNNY     84  34  16 CALM      30.20S
HERMISTON      SUNNY     81  50  33 NW7       30.08F
PENDLETON      SUNNY     81  42  25 CALM      30.10F
JOHN DAY       CLEAR     83  36  18 CALM      30.16F
MEACHAM        SUNNY     79  37  22 CALM      30.20R
LA GRANDE      SUNNY     75  43  31 NE5       30.16F
BAKER CITY     SUNNY     80  36  20 N3        30.17F
BURNS          SUNNY     83  29  14 VRB3      30.19F
ROME             N/A     85  27  12 N6G17     30.15F
ONTARIO        SUNNY     84  38  19 CALM      30.12F
$$



USA.gov is the U.S. government's official web portal to all federal, state and local government web resources and services.